Location: Beckers Corners
(42.5484°N, 73.8110°W)
Time: 16:12:33
(UTC+00:00)

BlueWalker 3 - Visible Passes

Search period start: 06 October 2024 00:00
Search period end: 16 October 2024 00:00
Orbit: 473 x 485 km, 53.2° (Epoch: 05 October)

Date Brightness Start Highest point End Pass type
(mag) Time Alt. Az. Time Alt. Az. Time Alt. Az.
06 Oct 1.8 09:16:40 55° SSW 09:17:22 76° SE 09:21:04 10° NE visible
07 Oct 2.6 08:49:56 50° E 08:49:56 50° E 08:52:51 10° ENE visible
07 Oct 3.2 10:24:18 10° W 10:27:25 26° NNW 10:30:35 10° NE visible
08 Oct 4.2 08:23:04 23° ENE 08:23:04 23° ENE 08:24:36 10° ENE visible
08 Oct 3.1 09:57:17 18° WNW 09:59:09 27° NNW 10:02:22 10° NE visible
09 Oct 5.2 07:56:06 11° ENE 07:56:06 11° ENE 07:56:17 10° ENE visible
09 Oct 2.9 09:30:18 28° NW 09:30:49 29° NNW 09:34:06 10° NE visible
10 Oct 3.3 09:03:14 28° N 09:03:14 28° N 09:05:48 10° NE visible
11 Oct 4.2 08:36:04 19° NNE 08:36:04 19° NNE 08:37:28 10° NE visible
11 Oct 4.0 10:10:29 10° NW 10:12:53 16° N 10:15:16 10° NE visible
12 Oct 5.1 08:08:51 11° NE 08:08:51 11° NE 08:09:05 10° NE visible
12 Oct 3.9 09:43:02 14° NNW 09:44:24 16° N 09:46:50 10° NE visible
13 Oct 3.9 09:15:45 17° N 09:15:53 17° N 09:18:21 10° NNE visible
14 Oct 4.3 08:48:25 15° NNE 08:48:25 15° NNE 08:49:52 10° NNE visible
14 Oct 4.0 10:23:47 10° NNW 10:26:22 18° N 10:28:58 10° NE visible
15 Oct 5.0 08:21:04 11° NNE 08:21:04 11° NNE 08:21:19 10° NNE visible
15 Oct 4.1 09:55:14 10° NNW 09:57:46 17° N 10:00:18 10° NE visible
